Tracking 35334 objects as of 13-Sep-2026
HD Live streaming from Space Station
objects crossing your sky now

SL-12 DEB


SL-12 DEB is no longer on orbit


NORAD ID: 29477
Int'l Code: 1989-039DX
Launch date: May 31, 1989
Source: Commonwealth of Independent States (former USSR) (CIS)
Launch site: TYURATAM MISSILE AND SPACE COMPLEX (TTMTR)
Decay date: 2007-07-16

Note: This is SATELLITE DEBRIS
Your satellite tracking list
Your tracking list is empty




NASA's NSSDC Master Catalog

Two Line Element Set (TLE):
1 29477U 89039DX  07044.48565469  .00105185  00000-0  26674-1 0  9996
2 29477 065.5549 199.4828 5611438 054.8516 349.6529 04.61383514  8071
Source of the keplerian elements: AFSPC